Glen Aubrey, NY

4:55 AM EDT on September 28, 2016 (GMT -0400)
Binghamton Regional-Link

Weather History for KBGM - January, 2014

Change the Weather History Date:

Thursday, January 9, 2014

  Actual Average Record
Temperature  
Mean Temperature 20 °F 22 °F  
Max Temperature 25 °F 29 °F 56 °F (1998)
Min Temperature 14 °F 16 °F -15 °F (1968)
Degree Days  
Heating Degree Days 45 43  
Month to date heating degree days 471 381  
Since 1 July heating degree days 3210 3126  
Cooling Degree Days 0 0  
Month to date cooling degree days 0 0  
Year to date cooling degree days 0 0  
Moisture  
Dew Point 9 °F    
Average Humidity 71    
Maximum Humidity 88    
Minimum Humidity 54    
Precipitation  
Precipitation 0.01 in 0.07 in 0.84 in (1999)
Month to date precipitation 1.11 0.71  
Year to date precipitation 1.11 0.71  
Snow  
Snow 0.20 in 0.70 in 6.30 in (1974)
Month to date snowfall 13.0 6.3  
Since 1 July snowfall 46.2 30.9  
Snow Depth 1.00 in    
Sea Level Pressure  
Sea Level Pressure 30.53 in    
Wind  
Wind Speed 5 mph (West)    
Max Wind Speed 10 mph    
Max Gust Speed 15 mph    
Visibility 8 miles    
Events Snow    
T = Trace of Precipitation, MM = Missing Value Source: NWS Daily Summary

Daily Weather History Graph

Daily Weather History Graph

Search for Another Location

Airport or City:

Trip Planner

Search our weather history database for the weather conditions in past years. The results will help you decide how hot, cold, wet, or windy it might be!

Date:

Astronomy

Jan. 09, 2014 Rise Set
Actual Time 7:32 AM EST 4:50 PM EST
Civil Twilight 7:00 AM EST 5:21 PM EST
Nautical Twilight 6:25 AM EST 5:56 PM EST
Astronomical Twilight 5:52 AM EST 6:30 PM EST
Moon 12:18 PM EST (1/9) 1:34 AM EST (1/9)
Length of Visible Light 10h 20m
Length of Day
9h 18m
Waxing Gibbous, 66% of the Moon is Illuminated
Jan 9
Waxing Gibbous
Jan 15
Full
Jan 24
Last Quarter
Jan 30
New
Feb 6
First Quarter

Hourly Weather History & Observations

Time (EST) Temp. Windchill Dew Point Humidity Pressure Visibility Wind Dir Wind Speed Gust Speed Precip Events Conditions
12:53 AM 14.0 °F 2.9 °F 6.1 °F 71% 30.45 in 9.0 mi WSW 8.1 mph - N/A   Overcast
1:39 AM 15.8 °F 5.1 °F 6.8 °F 68% 30.36 in 10.0 mi WSW 8.1 mph - N/A   Overcast
1:53 AM 15.1 °F 4.2 °F 7.0 °F 70% 30.47 in 10.0 mi West 8.1 mph - N/A   Overcast
2:29 AM 15.8 °F 5.1 °F 8.6 °F 73% 30.38 in 10.0 mi WSW 8.1 mph - N/A   Overcast
2:53 AM 15.1 °F 4.2 °F 8.1 °F 74% 30.48 in 10.0 mi WSW 8.1 mph - N/A   Overcast
3:53 AM 15.1 °F 5.2 °F 8.1 °F 74% 30.49 in 10.0 mi West 6.9 mph - N/A   Overcast
4:53 AM 14.0 °F 5.1 °F 8.1 °F 77% 30.51 in 10.0 mi West 5.8 mph - N/A   Overcast
5:29 AM 14.0 °F 3.9 °F 8.6 °F 79% 30.43 in 10.0 mi West 6.9 mph - N/A   Overcast
5:53 AM 15.1 °F 6.4 °F 8.1 °F 74% 30.53 in 10.0 mi West 5.8 mph - N/A   Overcast
6:53 AM 15.1 °F 5.2 °F 8.1 °F 74% 30.55 in 10.0 mi West 6.9 mph - N/A   Overcast
7:53 AM 15.1 °F 6.4 °F 9.0 °F 77% 30.58 in 6.0 mi WNW 5.8 mph - N/A   Haze
8:17 AM 15.8 °F 10.2 °F 10.4 °F 79% 30.50 in 1.8 mi WNW 3.5 mph - 0.00 in Snow Light Snow
8:53 AM 16.0 °F - 10.9 °F 81% 30.61 in 1.2 mi Calm Calm - 0.00 in Snow Light Snow
9:12 AM 15.8 °F 8.6 °F 12.2 °F 86% 30.53 in 1.5 mi WNW 4.6 mph - 0.00 in Snow Light Snow
9:24 AM 15.8 °F 6.1 °F 10.4 °F 79% 30.53 in 2.5 mi North 6.9 mph - 0.00 in Snow Light Snow
9:34 AM 15.8 °F 8.6 °F 10.4 °F 79% 30.53 in 5.0 mi North 4.6 mph - 0.00 in   Haze
9:44 AM 15.8 °F 8.6 °F 10.4 °F 79% 30.54 in 1.5 mi North 4.6 mph - 0.00 in Snow Light Snow
9:53 AM 16.0 °F 10.4 °F 12.0 °F 84% 30.64 in 1.5 mi North 3.5 mph - 0.01 in Snow Light Snow
10:08 AM 17.6 °F 12.3 °F 10.4 °F 73% 30.55 in 0.8 mi North 3.5 mph - 0.00 in Snow Light Snow
10:17 AM 17.6 °F - 10.4 °F 73% 30.55 in 1.5 mi Calm Calm - 0.00 in Snow Light Snow
10:22 AM 17.6 °F - 10.4 °F 73% 30.55 in 3.0 mi Calm Calm - 0.00 in Snow Light Snow
10:38 AM 19.4 °F - 10.4 °F 68% 30.55 in 10.0 mi Calm Calm - 0.00 in   Scattered Clouds
10:53 AM 19.9 °F 14.9 °F 10.0 °F 65% 30.64 in 8.0 mi Variable 3.5 mph - 0.00 in   Scattered Clouds
11:34 AM 19.4 °F 12.8 °F 10.4 °F 68% 30.53 in 10.0 mi WSW 4.6 mph - N/A   Mostly Cloudy
11:53 AM 21.0 °F - 10.0 °F 63% 30.61 in 10.0 mi Calm Calm - N/A   Mostly Cloudy
12:02 PM 19.4 °F 14.3 °F 10.4 °F 68% 30.51 in 10.0 mi WSW 3.5 mph - N/A   Partly Cloudy
12:53 PM 21.9 °F - 9.0 °F 58% 30.59 in 10.0 mi Calm Calm - N/A   Partly Cloudy
1:53 PM 23.0 °F 18.4 °F 9.0 °F 55% 30.56 in 10.0 mi North 3.5 mph - N/A   Clear
2:53 PM 23.0 °F - 9.0 °F 55% 30.56 in 10.0 mi Calm Calm - N/A   Clear
3:53 PM 21.9 °F 17.2 °F 8.1 °F 55% 30.56 in 10.0 mi SE 3.5 mph - N/A   Clear
4:53 PM 19.9 °F 14.9 °F 7.0 °F 57% 30.57 in 10.0 mi SSE 3.5 mph - N/A   Clear
6:53 PM 19.0 °F 12.3 °F 7.0 °F 59% 30.56 in 10.0 mi SSE 4.6 mph - N/A   Clear
7:53 PM 19.0 °F 11.1 °F 8.1 °F 62% 30.53 in 10.0 mi SSE 5.8 mph - N/A   Clear
8:53 PM 19.0 °F 10.0 °F 8.1 °F 62% 30.53 in 10.0 mi SSE 6.9 mph - N/A   Clear
9:53 PM 19.0 °F 9.0 °F 8.1 °F 62% 30.52 in 10.0 mi SSE 8.1 mph - N/A   Clear
10:53 PM 19.9 °F 11.1 °F 9.0 °F 62% 30.50 in 10.0 mi South 6.9 mph - N/A   Mostly Cloudy
11:53 PM 21.9 °F 11.7 °F 10.9 °F 63% 30.48 in 10.0 mi South 9.2 mph - N/A   Overcast